[[[{"header":{"parameterUnit":"kt","parameterCategory":2,"dx":1,"dy":1,"la1":30.253999710083008,"la2":30.299108505249023,"lo1":-89.0895004272461,"lo2":-89.04439544677734,"nx":28,"ny":28,"refTime":"2022-10-29T21:00:00:Z","depth":0,"parameterNumber":1,"parameterNumberName":"U-component_of_WINDS"},"data":[6.4263,6.4424,6.449,6.4706,6.4804,6.4964,6.5044,6.5155,6.5261,6.5464,6.5593,6.5681,6.5818,6.5993,6.6139,6.6177,6.6234,6.6241,6.6284,6.6188,6.618,6.6172,6.6136,6.6252,6.6252,6.6373,6.6374,6.6375,6.4185,6.4282,6.4415,6.4591,6.4707,6.4741,6.4885,6.4981,6.5125,6.5258,6.5389,6.5575,6.5732,6.5871,6.6035,6.6116,6.6143,6.6156,6.6151,6.6173,6.6073,6.6035,6.613,6.613,6.613,6.613,6.613,6.613,6.4062,6.4156,6.4301,6.4448,6.4555,6.4673,6.4776,6.4881,6.5015,6.5192,6.525,6.5416,6.5565,6.5799,6.5896,6.603,6.6031,6.6067,6.6077,6.6085,6.6083,6.5899,6.6062,6.6062,6.6062,6.6062,6.6062,0,6.3994,6.4043,6.4177,6.433,6.4441,6.4568,6.4696,6.4762,6.4897,6.5003,6.5163,6.5268,6.5477,6.5639,6.5809,6.5905,6.5956,6.5969,6.5995,6.5968,6.5922,6.5949,6.5783,6.5964,6.5964,6.5963,6.5963,6.5963,6.3875,6.3977,6.4163,6.4247,6.4334,6.447,6.4566,6.4676,6.4774,6.4951,6.5031,6.5193,6.5329,6.5579,6.5706,6.5864,6.5891,6.5952,6.5915,6.5885,6.5894,6.5886,6.5898,6.5957,6.5958,6.5958,6.5959,0,6.3803,6.3913,6.4094,6.4269,6.4317,6.4419,6.4571,6.4672,6.4764,6.4916,6.4959,6.5105,6.5263,6.5381,6.5587,6.5644,6.582,6.5842,6.5768,6.5779,6.5847,6.5839,6.6044,6.6077,6.5958,6.5959,6.596,0,6.3746,6.3876,6.4034,6.4133,6.4282,6.439,6.4535,6.4629,6.4758,6.4879,6.4953,6.5066,6.5199,6.533,6.5415,6.558,6.5619,6.5673,6.5694,6.5667,6.566,6.5723,6.5717,6.5737,6.5736,6.5735,6.5734,0,6.3621,6.3859,6.4019,6.4092,6.4294,6.4368,6.4456,6.4602,6.4696,6.4837,6.49,6.5058,6.5145,6.5268,6.5375,6.5345,6.5579,6.5562,6.5635,6.5632,6.5682,6.5677,6.5828,6.5733,6.5732,6.5732,6.5732,0,6.3593,6.3729,6.3945,6.4115,6.4174,6.4281,6.4442,6.4561,6.471,6.4769,6.4882,6.4946,6.5099,6.5072,6.5286,6.5217,6.53,6.5366,6.5373,6.5395,6.5362,6.5432,6.5563,6.5582,6.5414,6.5411,6.5409,0,6.342,6.3668,6.3761,6.3966,6.4096,6.417,6.4292,6.442,6.4509,6.4636,6.4737,6.4881,6.4886,6.4949,6.5038,6.5149,6.5238,6.514,6.5327,6.5333,6.5284,6.5406,6.5396,6.5521,6.5377,6.538,6.5383,0,6.3299,6.3541,6.3571,6.3659,6.3844,6.3955,6.4095,6.426,6.4339,6.4476,6.4598,6.4805,6.4818,6.492,6.499,6.5077,6.5181,6.508,6.5086,6.5095,6.537,6.536,6.538,6.521,6.5214,6.5217,6.5357,0,6.3233,6.3372,6.3457,6.3647,6.375,6.3885,6.4007,6.41,6.4155,6.4246,6.4428,6.4567,6.474,6.4794,6.485,6.5012,6.5004,6.5016,6.5001,6.5079,6.5128,6.5148,6.4916,6.4917,6.4917,6.4917,0,0,6.304,6.3241,6.3339,6.3477,6.3571,6.3645,6.3779,6.388,6.4081,6.4146,6.4137,6.4448,6.4562,6.4771,6.4805,6.4875,6.4916,6.4884,6.504,6.5053,6.5066,6.5116,6.5135,6.4918,6.4918,6.4918,6.4918,0,6.3041,6.3149,6.3278,6.3385,6.3548,6.3637,6.3668,6.3844,6.3909,6.4086,6.4148,6.4273,6.4519,6.4632,6.4721,6.4861,6.4903,6.4905,6.4938,6.5038,6.5051,6.5063,6.5114,6.5131,6.4918,6.4918,6.4918,0,6.2945,6.3072,6.3147,6.3361,6.3469,6.3603,6.3614,6.3755,6.3857,6.3935,6.4111,6.4205,6.4367,6.4547,6.4633,6.4629,6.4884,6.4826,6.4828,6.484,6.4944,6.4959,6.4972,6.4794,6.4793,6.4792,0,0,6.2929,6.3058,6.323,6.337,6.3434,6.3568,6.3652,6.3716,6.3856,6.3913,6.4035,6.4172,6.4317,6.441,6.4552,6.4733,6.4776,6.4805,6.4811,6.4815,6.483,6.4934,6.4949,6.4788,6.4788,6.4788,0,0,6.2924,6.3127,6.3156,6.3333,6.3463,6.3644,6.3727,6.3769,6.3908,6.3907,6.4025,6.4067,6.4237,6.4329,6.4265,6.455,6.4531,6.4549,6.4483,6.4493,6.4499,6.4474,6.43,0,0,0,0,0,6.2986,6.3101,6.3126,6.3173,6.3446,6.363,6.3666,6.3763,6.3747,6.3811,6.392,6.3958,6.4319,6.4265,6.4313,6.4383,6.4741,6.475,6.4757,6.4716,6.4724,6.4731,0,0,0,0,0,0,6.3006,6.3064,6.3123,6.3306,6.3369,6.3626,6.3622,6.3651,6.3743,6.3748,6.3936,6.3964,6.4053,6.4248,6.4289,6.4354,6.4286,6.4745,6.4752,6.4758,6.4719,6.4726,6.4731,0,0,0,0,0,6.3022,6.3068,6.348,6.3306,6.336,6.3517,6.3618,6.3643,6.3716,6.3885,6.3915,6.3781,6.4052,6.4094,6.4273,6.4332,6.4258,6.4273,6.4749,6.4755,6.476,6.4722,0,0,0,0,0,0,6.3034,6.3094,6.3493,6.3513,6.3269,6.3505,6.3545,6.3635,6.385,6.388,6.3736,6.3737,6.4053,6.4085,6.4117,6.4319,6.4235,6.4251,6.426,6.4753,6.4758,6.4762,0,0,0,0,0,0,6.307,6.3111,6.3503,6.3452,6.3467,6.3493,6.3529,6.3695,6.3852,6.3689,6.3697,6.3734,6.4007,6.408,6.4105,6.4361,6.4218,6.4232,6.4243,6.4249,6.4757,6.476,0,0,0,0,0,0,6.3089,6.3124,6.3447,6.3459,6.3472,6.3708,6.3643,6.3918,6.3803,6.3679,6.3795,6.3792,6.4,6.4028,6.4096,6.4342,6.4356,6.4218,6.4228,6.4235,6.424,0,0,0,0,0,0,0,6.3105,6.2844,6.3372,6.3465,6.3476,6.3701,6.3707,6.3712,6.3802,6.3799,6.3796,6.3794,6.4134,6.415,6.4166,6.4325,0,0,6.4217,6.4224,0,0,0,0,0,0,0,0,6.2832,6.2841,6.3373,6.3377,6.3381,6.3702,6.3706,6.3711,6.3801,6.3799,6.3797,6.3795,6.4138,6.4151,6.4165,0,0,0,0,0,0,0,0,0,0,0,0,0,0,0,6.3373,6.3377,0,6.3702,6.3706,6.371,6.3801,6.3799,6.3797,6.3796,6.4142,6.4153,6.4164,0,0,0,0,0,0,0,0,0,0,0,0,0,0,0,0,0,0,0,0,0,0,0,0,0,0,0,0,0,0,0,0,0,0,0,0,0,0,0,0,0,0,0,0,0,0,0,0,0,0,0,0,0,0,0,0,0,0,0,0,0,0,0,0,0,0,0,0,0]}],[{"header":{"parameterUnit":"kt","parameterCategory":2,"dx":1,"dy":1,"la1":30.253999710083008,"la2":30.299108505249023,"lo1":-89.0895004272461,"lo2":-89.04439544677734,"nx":28,"ny":28,"refTime":"2022-10-29T21:00:00:Z","depth":0,"parameterNumber":2,"parameterNumberName":"V-component_of_WINDS"},"data":[1.9617,1.9587,1.9576,1.9535,1.9518,1.9487,1.9473,1.9453,1.9434,1.9395,1.937,1.9356,1.9332,1.9299,1.9271,1.9266,1.9254,1.9249,1.9242,1.9274,1.9278,1.9281,1.9287,1.9247,1.9247,1.921,1.921,1.921,1.9633,1.9616,1.9593,1.9562,1.9541,1.9537,1.9513,1.9495,1.9468,1.9445,1.9422,1.9388,1.9359,1.9337,1.9307,1.9291,1.9287,1.9283,1.9283,1.9279,1.9313,1.932,1.9286,1.9286,1.9286,1.9286,1.9286,1.9286,1.9659,1.9642,1.9618,1.9593,1.9575,1.9554,1.9536,1.952,1.9496,1.9466,1.9459,1.9429,1.9404,1.9365,1.935,1.9324,1.9327,1.932,1.9317,1.9315,1.9312,1.936,1.9319,1.932,1.932,1.932,1.932,0,1.9674,1.9666,1.9645,1.9619,1.96,1.958,1.9559,1.9548,1.953,1.9512,1.9484,1.9466,1.9431,1.9404,1.9375,1.9361,1.9357,1.9357,1.935,1.9352,1.9355,1.935,1.9402,1.9358,1.9358,1.9359,1.9359,1.9359,1.9697,1.9681,1.9653,1.9638,1.9626,1.9604,1.9589,1.9575,1.9559,1.9532,1.9517,1.9491,1.9469,1.9427,1.9409,1.9383,1.9381,1.9364,1.9377,1.9378,1.9377,1.9377,1.9373,1.9362,1.9362,1.9361,1.9361,0,1.971,1.9696,1.9668,1.9643,1.9636,1.9619,1.9597,1.958,1.9568,1.9543,1.9536,1.9517,1.9491,1.9477,1.9446,1.9438,1.9404,1.9404,1.9411,1.9409,1.9391,1.9391,1.934,1.9331,1.9375,1.9375,1.9374,0,1.9724,1.9704,1.9683,1.9668,1.9643,1.9631,1.9607,1.9595,1.9577,1.9557,1.9551,1.9533,1.9519,1.9497,1.9488,1.9458,1.9454,1.9446,1.9443,1.9445,1.9446,1.9436,1.9437,1.9442,1.9442,1.9443,1.9443,0,1.9745,1.9713,1.9688,1.9678,1.9652,1.964,1.9628,1.9609,1.9595,1.9575,1.9565,1.9543,1.9531,1.9513,1.95,1.9509,1.9466,1.9475,1.9457,1.9457,1.9448,1.9449,1.9407,1.9443,1.9443,1.9443,1.9443,0,1.9755,1.9736,1.9704,1.9681,1.9673,1.9658,1.9635,1.9619,1.9599,1.9593,1.9577,1.9572,1.9549,1.9558,1.9524,1.9538,1.9526,1.9517,1.9516,1.9512,1.9523,1.9498,1.9462,1.9456,1.9508,1.9508,1.9509,0,1.9781,1.9747,1.9738,1.9708,1.969,1.9684,1.9666,1.9651,1.9641,1.9623,1.9612,1.9593,1.9598,1.959,1.9575,1.9563,1.9544,1.9565,1.9536,1.9535,1.9539,1.9505,1.9503,1.9471,1.9516,1.9515,1.9514,0,1.9801,1.9772,1.9768,1.9756,1.9735,1.9722,1.9702,1.9681,1.967,1.9655,1.9636,1.9611,1.9613,1.9601,1.9596,1.9582,1.9556,1.9586,1.9585,1.9578,1.952,1.9516,1.9511,1.9556,1.9555,1.9554,1.952,0,1.9813,1.9797,1.9785,1.9764,1.9752,1.9734,1.9723,1.9711,1.9707,1.9698,1.9673,1.966,1.964,1.9633,1.963,1.9602,1.9604,1.9608,1.9616,1.9596,1.9584,1.9579,1.9634,1.9634,1.9635,1.9635,0,0,1.9841,1.9818,1.9811,1.9793,1.9783,1.978,1.9761,1.9751,1.9731,1.9722,1.9727,1.969,1.968,1.9651,1.9644,1.9638,1.963,1.964,1.9606,1.9603,1.96,1.9588,1.9583,1.9635,1.9635,1.9635,1.9635,0,1.9844,1.9835,1.9819,1.9807,1.9791,1.9784,1.9779,1.9763,1.9757,1.9735,1.9733,1.9718,1.9691,1.9679,1.9669,1.9643,1.9642,1.9638,1.9626,1.9608,1.9605,1.9602,1.9589,1.9585,1.9636,1.9636,1.9636,0,1.986,1.9848,1.984,1.9819,1.9809,1.9793,1.9798,1.9783,1.977,1.9769,1.9748,1.9739,1.9724,1.97,1.9689,1.9693,1.9652,1.9666,1.9664,1.9663,1.9645,1.9641,1.9638,1.9684,1.9684,1.9684,0,0,1.9863,1.985,1.9835,1.9819,1.9813,1.9802,1.9794,1.979,1.9777,1.9772,1.9762,1.9748,1.9732,1.9722,1.9707,1.9683,1.9678,1.9672,1.967,1.9668,1.9665,1.9647,1.9644,1.9685,1.9685,1.9685,0,0,1.9866,1.9848,1.9847,1.9828,1.9815,1.98,1.979,1.9789,1.9775,1.9776,1.977,1.9766,1.9744,1.9737,1.9748,1.9709,1.9718,1.9715,1.9715,1.9712,1.971,1.9712,1.9753,0,0,0,0,0,1.9864,1.985,1.9849,1.9845,1.982,1.98,1.9797,1.9791,1.9796,1.9788,1.9779,1.9781,1.9741,1.975,1.9746,1.9733,1.9695,1.9693,1.9692,1.9686,1.9682,1.968,0,0,0,0,0,0,1.9862,1.9857,1.985,1.9834,1.9829,1.9801,1.9808,1.9806,1.9797,1.9798,1.9782,1.978,1.9775,1.9752,1.9748,1.9737,1.9754,1.9694,1.9693,1.9692,1.9684,1.9682,1.968,0,0,0,0,0,1.9861,1.9856,1.9818,1.9834,1.983,1.9818,1.9809,1.9807,1.98,1.9788,1.9786,1.9797,1.9775,1.9771,1.975,1.9739,1.9757,1.9756,1.9693,1.9692,1.9691,1.9683,0,0,0,0,0,0,1.9859,1.9854,1.9817,1.9815,1.984,1.982,1.9816,1.9808,1.9791,1.9788,1.9802,1.9802,1.9775,1.9772,1.9769,1.9739,1.9759,1.9758,1.9757,1.9693,1.9692,1.9691,0,0,0,0,0,0,1.9857,1.9853,1.9816,1.9823,1.9822,1.9821,1.9818,1.9801,1.979,1.9806,1.9806,1.9802,1.9779,1.9772,1.977,1.9742,1.9761,1.976,1.9759,1.9758,1.9692,1.9691,0,0,0,0,0,0,1.9855,1.9852,1.9824,1.9823,1.9822,1.9802,1.9805,1.978,1.9797,1.9807,1.9798,1.9799,1.9779,1.9777,1.977,1.9744,1.9743,1.9761,1.976,1.9759,1.9759,0,0,0,0,0,0,0,1.9853,1.9877,1.9827,1.9823,1.9822,1.9799,1.9798,1.9798,1.9797,1.9797,1.9798,1.9799,1.977,1.9768,1.9766,1.9745,0,0,1.9761,1.9761,0,0,0,0,0,0,0,0,1.9878,1.9877,1.9827,1.9827,1.9827,1.9799,1.9798,1.9798,1.9797,1.9797,1.9798,1.9798,1.9769,1.9768,1.9767,0,0,0,0,0,0,0,0,0,0,0,0,0,0,0,1.9827,1.9827,0,1.9798,1.9798,1.9798,1.9797,1.9797,1.9798,1.9798,1.9769,1.9768,1.9767,0,0,0,0,0,0,0,0,0,0,0,0,0,0,0,0,0,0,0,0,0,0,0,0,0,0,0,0,0,0,0,0,0,0,0,0,0,0,0,0,0,0,0,0,0,0,0,0,0,0,0,0,0,0,0,0,0,0,0,0,0,0,0,0,0,0,0,0,0]}]]]